Weather History for Hof Plauen, Germany

Change the Weather History Date:

Thursday, October 18, 2012

  Actual Average Record
Temperature  
Mean Temperature 49 °F -  
Max Temperature 55 °F 49 °F 60 °F (2001)
Min Temperature 43 °F 37 °F 28 °F (1999)
Degree Days  
Heating Degree Days 16    
Moisture  
Dew Point 43 °F    
Average Humidity 80    
Maximum Humidity 95    
Minimum Humidity 60    
Precipitation  
Precipitation 0.00 in - - ()
Sea Level Pressure  
Sea Level Pressure 30.01 in    
Wind  
Wind Speed 6 mph ()    
Max Wind Speed 12 mph    
Max Gust Speed -    
Visibility 6.9 miles    
Events      
Averages and records for this station are not official NWS values.
T = Trace of Precipitation, MM = Missing Value Source: Averaged Metar Reports

Daily Weather History Graph

Daily Weather History Graph

Search for Another Location

Airport:

Trip Planner

Search our weather history database for the weather conditions in past years. The results will help you decide how hot, cold, wet, or windy it might be!

Date:

Astronomy

Oct. 18, 2012 Rise Set
Actual Time 7:40 AM CEST 6:14 PM CEST
Civil Twilight 7:07 AM CEST 6:47 PM CEST
Nautical Twilight 6:29 AM CEST 7:24 PM CEST
Astronomical Twilight 5:51 AM CEST 8:02 PM CEST
Moon 11:25 AM CEST (10/18) 8:09 PM CEST (10/18)
Length of Visible Light 11h 40m
Length of Day
10h 34m
Waxing Crescent, 12% of the Moon is Illuminated
Oct 18
Waxing Crescent
Oct 22
First Quarter
Oct 29
Full
Nov 7
Last Quarter
Nov 13
New

Hourly Weather History & Observations

Time (CEST) Temp. Windchill Dew Point Humidity Pressure Visibility Wind Dir Wind Speed Gust Speed Precip Events Conditions
12:00 AM 50 °F - 40 °F 60% 29.98 in 31 mi South 6.7 mph - -   Overcast
12:20 AM 46.4 °F 44.3 °F 37.4 °F 71% 29.98 in 6.2 mi South 4.6 mph - N/A   Unknown
12:50 AM 46.4 °F 44.3 °F 37.4 °F 71% 29.98 in 6.2 mi South 4.6 mph - N/A   Partly Cloudy
1:00 AM 49 °F - 41 °F 67% 29.99 in 28 mi South 4.5 mph - -  
1:20 AM 44.6 °F 42.2 °F 37.4 °F 76% 29.98 in 6.2 mi South 4.6 mph - N/A   Unknown
1:50 AM 46.4 °F 45.2 °F 39.2 °F 76% 29.98 in 6.2 mi South 3.5 mph - N/A   Unknown
2:00 AM 48 °F - 42 °F 74% 29.99 in 19 mi SSE 6.7 mph - -  
2:20 AM 46.4 °F 45.2 °F 39.2 °F 76% 29.98 in 6.2 mi South 3.5 mph - N/A   Unknown
2:50 AM 44.6 °F - 39.2 °F 81% 29.98 in 6.2 mi Variable 2.3 mph - N/A   Unknown
3:00 AM 48 °F - 43 °F 76% 30.00 in 14 mi SSE 8.9 mph - -  
3:20 AM 46.4 °F 44.3 °F 39.2 °F 76% 29.98 in 6.2 mi SE 4.6 mph - N/A   Unknown
3:50 AM 46.4 °F 42.4 °F 41.0 °F 81% 29.98 in 6.2 mi ESE 8.1 mph - N/A   Unknown
4:00 AM 47 °F - 43 °F 82% 30.00 in 9 mi SE 8.9 mph - -  
4:20 AM 46.4 °F 45.2 °F 41.0 °F 81% 29.98 in 6.2 mi SSE 3.5 mph - N/A   Unknown
4:50 AM 44.6 °F 43.1 °F 41.0 °F 87% 29.98 in 6.2 mi East 3.5 mph - N/A   Unknown
5:20 AM 46.4 °F 45.2 °F 41.0 °F 81% 29.98 in 6.2 mi South 3.5 mph - N/A   Unknown
5:50 AM 46.4 °F 42.9 °F 41.0 °F 81% 29.98 in 6.2 mi South 6.9 mph - N/A   Unknown
6:00 AM 45 °F - 43 °F 91% 30.01 in 9 mi SE 6.7 mph - -   Partly Cloudy
6:20 AM 44.6 °F 41.4 °F 41.0 °F 87% 29.98 in 6.2 mi South 5.8 mph - N/A   Unknown
6:50 AM 44.6 °F 43.1 °F 39.2 °F 81% 29.98 in 6.2 mi SSE 3.5 mph - N/A   Unknown
7:00 AM 44 °F - 42 °F 91% 30.01 in 12 mi SSE 6.7 mph - -   Clear
7:20 AM 44.6 °F 39.7 °F 41.0 °F 87% 29.98 in - South 9.2 mph - N/A   Clear
7:50 AM 44.6 °F 40.2 °F 41.0 °F 87% 30.01 in - SSE 8.1 mph - N/A   Clear
8:00 AM 44 °F - 43 °F 95% 30.02 in 11 mi SSE 4.5 mph - -   Clear
8:20 AM 44.6 °F 38.8 °F 41.0 °F 87% 30.01 in - SSE 11.5 mph - N/A   Clear
8:50 AM 46.4 °F 42.9 °F 41.0 °F 81% 30.01 in - SSE 6.9 mph - N/A   Clear
9:00 AM 44 °F - 43 °F 94% 30.04 in 5 mi SSE 8.9 mph - -   Scattered Clouds
9:20 AM 44.6 °F 40.2 °F 41.0 °F 87% 30.01 in - South 8.1 mph - N/A   Clear
9:50 AM 46.4 °F 43.5 °F 41.0 °F 81% 30.01 in - SSE 5.8 mph - N/A   Clear
10:00 AM 45 °F - 43 °F 91% 30.04 in 4 mi SE 6.7 mph - -   Mist
10:20 AM 48.2 °F - 42.8 °F 82% 30.01 in - South 5.8 mph - N/A   Clear
10:50 AM 50.0 °F - 42.8 °F 76% 30.01 in - SSE 8.1 mph - N/A   Clear
11:20 AM 50.0 °F - 42.8 °F 76% 30.01 in - SE 8.1 mph - N/A   Clear
11:50 AM 50.0 °F - 42.8 °F 76% 30.01 in - SSE 6.9 mph - N/A   Clear
12:00 PM 49 °F - 45 °F 80% 30.02 in 11 mi SSE 8.9 mph - -   Clear
12:20 PM 50.0 °F - 42.8 °F 76% 30.01 in - SSE 5.8 mph - N/A   Clear
12:50 PM 51.8 °F - 42.8 °F 71% 30.01 in - SE 8.1 mph - N/A   Clear
1:00 PM 51 °F - 44 °F 71% 30.01 in 11 mi SSE 6.7 mph - -   Clear
1:20 PM 51.8 °F - 42.8 °F 71% 30.01 in - SE 8.1 mph - N/A   Clear
1:50 PM 53.6 °F - 42.8 °F 67% 30.01 in - SE 9.2 mph - N/A   Clear
2:20 PM 53.6 °F - 42.8 °F 67% 29.98 in - SE 6.9 mph - N/A   Clear
2:50 PM 55.4 °F - 44.6 °F 67% 29.98 in - ESE 6.9 mph - N/A   Clear
3:00 PM 55 °F - 46 °F 64% 29.97 in 9 mi SE 8.9 mph - -   Scattered Clouds
3:20 PM 53.6 °F - 44.6 °F 72% 29.98 in - SE 8.1 mph - N/A   Clear
3:50 PM 53.6 °F - 42.8 °F 67% 29.98 in - SE 9.2 mph - N/A   Clear
4:00 PM 53 °F - 45 °F 65% 29.98 in 12 mi SE 8.9 mph - -   Scattered Clouds
4:20 PM 51.8 °F - 42.8 °F 71% 30.01 in - ESE 8.1 mph - N/A   Clear
4:50 PM 51.8 °F - 42.8 °F 71% 30.01 in - ESE 4.6 mph - N/A   Clear
5:20 PM 51.8 °F - 44.6 °F 76% 30.01 in - SE 4.6 mph - N/A   Clear
5:50 PM 50.0 °F - 44.6 °F 82% 30.01 in - SSE 5.8 mph - N/A   Clear
6:00 PM 51 °F - 46 °F 78% 30.01 in 9 mi SSE 6.7 mph - -   Scattered Clouds
6:20 PM 50.0 °F - 44.6 °F 82% 30.01 in - SSE 8.1 mph - N/A   Clear
6:50 PM 50.0 °F - 44.6 °F 82% 30.01 in - SE 8.1 mph - N/A   Clear
7:00 PM 50 °F - 47 °F 84% 30.02 in 6 mi SSE 8.9 mph - -   Scattered Clouds
7:20 PM 48.2 °F - 44.6 °F 87% 30.04 in - SSE 8.1 mph - N/A   Clear
7:50 PM 48.2 °F - 44.6 °F 87% 30.04 in - SSE 5.8 mph - N/A   Clear
8:00 PM 48 °F - 46 °F 90% 30.04 in 4 mi SSE 8.9 mph - -   Mist
8:20 PM 48.2 °F - 44.6 °F 87% 30.04 in 4.3 mi South 6.9 mph - N/A   Mist
8:50 PM 48.2 °F - 44.6 °F 87% 30.04 in 3.7 mi SSE 8.1 mph - N/A   Mist
9:00 PM 48 °F - 46 °F 91% 30.04 in 3 mi SE 8.9 mph - -   Mist
9:20 PM 48.2 °F - 44.6 °F 87% 30.04 in 3.1 mi South 6.9 mph - N/A   Mist
9:50 PM 48.2 °F - 44.6 °F 87% 30.04 in 3.1 mi SSE 8.1 mph - N/A   Mist
10:00 PM 48 °F - 47 °F 94% 30.05 in 2 mi SSE 11.2 mph - -   Mist
10:20 PM 48.2 °F - 44.6 °F 87% 30.04 in - SE 6.9 mph - N/A   Mist
10:50 PM 48.2 °F - 44.6 °F 87% 30.04 in 3.1 mi SSE 9.2 mph - N/A   Mist
11:20 PM 48.2 °F - 44.6 °F 87% 30.06 in 3.1 mi SE 6.9 mph - N/A   Mist
11:50 PM 48.2 °F - 44.6 °F 87% 30.06 in 3.7 mi SE 5.8 mph - N/A   Mist